Home > Weather > Wellington > Past weeks

Flag for New Zealand Weather for the Past 2 Weeks in Wellington, New Zealand

Now
72 °F

Passing clouds.


Feels Like: 76 °F
Forecast: 61 / 68 °F
Wind: 18 mph from North

Location: Wellington Airport

Current Time: Feb 12, 2016 at 1:20:10 PM

Latest Report: Feb 12, 2016 at 12:30 PM


Visibility: N/A

Pressure: 30.07 "Hg

Humidity: 61%

Dew point: 57 °F

Location of WellingtonLocation

Historic Weather in Wellington — Graph

°F

Wellington Temperature Yesterday

Maximum temperature yesterday: 79 °F (at 2:00 PM)
Minimum temperature yesterday: 64 °F (at 9:30 PM)
Average temperature yesterday: 70 °F

High & Low Weather Summary for the Past Weeks

 TemperatureHumidityPressure
High79 °F (Feb 1, 3:00 PM)100% (Feb 3, 3:00 AM)30.18 "Hg (Feb 3, 3:00 AM)
Low50 °F (Feb 1, 6:30 AM)30% (Feb 11, 4:00 PM)29.65 "Hg (Feb 9, 3:00 PM)
Average65 °F76%29.97 "Hg
* Reported Jan 28 11:00 AM — Feb 12 11:00 AM, Wellington, Weather by CustomWeather, © 2016

Note: Actual official high and low records may vary slightly from our data, if they occured in-between our weather recording intervals... More about our weather records

Advertising

Wellington Weather History for the Previous 24 Hours

 ConditionsComfort  
Time TempWeatherWind HumidityBarometerVisibility
11:00 AM
Fri, Feb 12
72 °FPartly sunny.16 mph61%30.07 "HgN/A
10:30 AM70 °FPartly sunny.15 mph64%30.07 "HgN/A
10:00 AM70 °FPartly sunny.17 mph64%30.07 "HgN/A
9:30 AM68 °FPartly sunny.17 mph69%30.07 "HgN/A
9:00 AM66 °FPartly sunny.17 mph73%30.04 "HgN/A
8:30 AM66 °FOvercast.15 mph73%30.04 "HgN/A
8:00 AM66 °FPartly sunny.15 mph78%30.04 "HgN/A
7:30 AM64 °FPartly sunny.15 mph78%30.04 "HgN/A
7:00 AM64 °FPartly sunny.17 mph78%30.01 "HgN/A
6:30 AM64 °FPassing clouds.16 mph78%30.01 "HgN/A
6:00 AM64 °FPassing clouds.16 mph83%30.01 "HgN/A
5:30 AM64 °FPassing clouds.20 mph78%29.98 "HgN/A
5:00 AM64 °FPassing clouds.22 mph78%29.98 "HgN/A
4:30 AM64 °FMild.22 mph78%29.98 "HgN/A
4:00 AM64 °FPassing clouds.22 mph83%29.98 "HgN/A
3:30 AM64 °FPassing clouds.20 mph83%29.98 "HgN/A
3:00 AM64 °FMild.18 mph83%29.98 "HgN/A
2:30 AM64 °FMild.20 mph83%29.98 "HgN/A
2:00 AM64 °FMild.18 mph83%29.98 "HgN/A
1:30 AM64 °FMild.20 mph83%29.98 "HgN/A
1:00 AM64 °FMild.21 mph83%29.98 "HgN/A
12:30 AM64 °FMild.20 mph83%29.98 "HgN/A
12:00 AM64 °FMild.20 mph83%29.98 "HgN/A
11:30 PM
Thu, Feb 11
64 °FMild.17 mph83%29.98 "HgN/A
11:00 PM64 °FMild.17 mph83%29.98 "HgN/A
10:30 PM64 °FMild.17 mph83%29.98 "HgN/A
10:00 PM64 °FMild.20 mph83%29.98 "HgN/A
9:30 PM64 °FMild.20 mph83%29.98 "HgN/A
9:00 PM66 °FMild.21 mph73%29.95 "HgN/A
8:30 PM66 °FMild.17 mph73%29.95 "HgN/A
8:00 PM68 °FMild.20 mph64%29.95 "HgN/A
7:30 PM70 °FMild.20 mph60%29.95 "HgN/A
7:00 PM72 °FMild.18 mph50%29.92 "HgN/A
6:30 PM72 °FMild.20 mph53%29.95 "HgN/A
6:00 PM73 °FMild.18 mph47%29.95 "HgN/A
5:30 PM75 °FMild.21 mph39%29.95 "HgN/A
5:00 PM75 °FMild.23 mph36%29.95 "HgN/A
4:30 PM77 °FPleasantly warm.23 mph30%29.95 "HgN/A
4:00 PM79 °FPleasantly warm.25 mph30%29.92 "HgN/A
3:00 PM79 °FPleasantly warm.24 mph32%29.95 "HgN/A
2:30 PM79 °FPleasantly warm.25 mph32%29.95 "HgN/A
2:00 PM79 °FPleasantly warm.24 mph37%29.95 "HgN/A
1:30 PM77 °FWarm.20 mph44%29.95 "HgN/A
1:00 PM77 °FWarm.21 mph51%29.95 "HgN/A
Weather by CustomWeather, © 2016

See weather overviewHow to use our weather pages